Kosmos-2546

operational
NORAD ID: 45608 Int'l Des: 2020-031 Owner: VVKOV Country: RU
MEOELLIPTICALHEO_ELLIPTICALSEMI_SYNCMOLNIYA

About Kosmos-2546

Description loading...

Live Position

Loading 3D Globe...

Upcoming Passes

Altitude History

Altitude vs Time

uPlot chart will show altitude changes over time

Two-Line Element Set

1 45608U 20031A 26013.00051170 -.00000251 00000-0 00000+0 0 9993
2 45608 63.1437 86.1706 7008360 265.6054 18.5546 2.00552787 41357
Epoch: Jan 13, 2026 • Age: 82 hours

Current Status

Altitude 18841.7 km
Velocity 4.08 km/s
Sub-Earth Point 39.89°N, 19.56°W
Launch Date May 22, 2020
Age 5.6 years
Type other

Technical Details

Classification Payload
Mass 2550.00 kg
Dry Mass 2000.00 kg
Total Mass 2550.00 kg
Length 4.00 m
Diameter 2.00 m
Span 10.00 m
Shape Box + 2 Pan
Manufacturer RKKE/KOMET
Bus Type 14F142 EKS
Phase Status In Orbit
Owner/State VVKOV/RU

Large Constellations

Loading constellations...